Home > Weather > Apeldoorn > Past weeks

Flag for Netherlands Weather for the Past 2 Weeks in Apeldoorn, Netherlands

Now
43 °F

Scattered clouds.


Feels Like: 38 °F
Forecast: 31 / 42 °F
Wind: 8 mph from Southeast

Location: Deelen

Current Time: Feb 12, 2016 at 4:04:28 PM

Latest Report: Feb 12, 2016 at 3:25 PM


Visibility: N/A

Pressure: 29.45 "Hg

Humidity: 71%

Dew point: 34 °F

Location of ApeldoornLocation

Historic Weather in Apeldoorn — Graph

°F

Apeldoorn Temperature Yesterday

Maximum temperature yesterday: 45 °F (at 1:25 PM)
Minimum temperature yesterday: 30 °F (at 9:55 PM)
Average temperature yesterday: 37 °F

High & Low Weather Summary for the Past Weeks

 TemperatureHumidityPressure
High54 °F (Feb 1, 3:25 AM)100% (Jan 29, 5:25 PM)30.27 "Hg (Jan 29, 5:25 PM)
Low30 °F (Feb 11, 9:55 PM)62% (Jan 28, 2:25 PM)28.88 "Hg (Feb 9, 3:25 PM)
Average43 °F86%29.73 "Hg
* Reported Jan 28 2:25 PM — Feb 12 2:55 PM, Apeldoorn, Weather by CustomWeather, © 2016

Note: Actual official high and low records may vary slightly from our data, if they occured in-between our weather recording intervals... More about our weather records

Advertising

Apeldoorn Weather History for the Previous 24 Hours

 ConditionsComfort  
Time TempWeatherWind HumidityBarometerVisibility
2:55 PM
Fri, Feb 12
43 °FPassing clouds.7 mph71%29.45 "HgN/A
2:25 PM43 °FMostly cloudy.8 mph71%29.47 "HgN/A
1:55 PM43 °FBroken clouds.7 mph71%29.47 "HgN/A
1:25 PM41 °FOvercast.6 mph81%29.47 "HgN/A
12:55 PM41 °FOvercast.9 mph81%29.50 "HgN/A
12:25 PM41 °FCloudy.9 mph81%29.50 "HgN/A
11:55 AM39 °FOvercast.7 mph87%29.50 "HgN/A
11:25 AM39 °FLow clouds.6 mph87%29.53 "HgN/A
10:55 AM37 °FOvercast.7 mph93%29.53 "HgN/A
10:25 AM37 °FPartly sunny.7 mph93%29.53 "HgN/A
9:55 AM37 °FFog.6 mph93%29.53 "Hg4 mi
9:25 AM36 °FFog.3 mph100%29.53 "Hg3 mi
8:55 AM36 °FFog.6 mph93%29.56 "Hg3 mi
8:25 AM34 °FFog.6 mph100%29.56 "Hg2 mi
7:55 AM34 °FFog.5 mph100%29.56 "Hg3 mi
7:25 AM34 °FFog.3 mph93%29.56 "Hg2 mi
6:55 AM34 °FFog.3 mph93%29.56 "Hg1 mi
6:25 AM32 °FIce fog.6 mph100%29.59 "Hg1 mi
5:55 AM32 °FIce fog.3 mph93%29.59 "Hg1 mi
5:25 AM32 °FIce fog.3 mph93%29.59 "Hg1 mi
4:55 AM34 °FFog.2 mph93%29.59 "Hg1 mi
4:25 AM34 °FFog.2 mph93%29.59 "Hg1 mi
3:55 AM34 °FFog.1 mph93%29.62 "Hg1 mi
3:25 AM32 °FIce fog.3 mph100%29.62 "Hg2 mi
2:55 AM34 °FFog.5 mph100%29.62 "Hg2 mi
2:25 AM32 °FIce fog.2 mph100%29.62 "Hg1 mi
1:55 AM32 °FIce fog.5 mph93%29.62 "Hg1 mi
1:25 AM30 °FIce fog.2 mph93%29.62 "Hg1 mi
12:55 AM32 °FIce fog.1 mph93%29.62 "Hg1 mi
12:25 AM34 °FFog.3 mph93%29.65 "Hg2 mi
11:55 PM
Thu, Feb 11
32 °FIce fog.2 mph93%29.65 "Hg3 mi
10:55 PM32 °FIce fog.2 mph93%29.65 "Hg4 mi
9:55 PM30 °FPassing clouds.2 mph100%29.65 "HgN/A
9:25 PM32 °FPassing clouds.5 mph93%29.65 "HgN/A
8:55 PM32 °FPassing clouds.3 mph93%29.65 "HgN/A
8:25 PM34 °FPassing clouds.3 mph93%29.65 "HgN/A
7:55 PM34 °FPassing clouds.5 mph93%29.65 "HgN/A
7:25 PM34 °FPassing clouds.5 mph93%29.65 "HgN/A
6:55 PM36 °FPartly cloudy.5 mph93%29.65 "HgN/A
6:25 PM37 °FPassing clouds.5 mph87%29.65 "HgN/A
5:55 PM37 °FPassing clouds.3 mph87%29.65 "HgN/A
5:25 PM37 °FScattered clouds.5 mph87%29.62 "HgN/A
4:55 PM41 °FPartly sunny.7 mph81%29.62 "HgN/A
4:25 PM43 °FScattered clouds.8 mph76%29.62 "HgN/A
Weather by CustomWeather, © 2016

See weather overviewHow to use our weather pages